Regional Weather Roundup
Issued by NWS Glasgow, MT

Home | Current Version | Previous Version | Text Only | Print | Product List | Glossary On
Versions: 1 2 3 4 5 6 7 8 9 10 11 12 13 14 15 16 17 18 19 20 21 22 23 24 25 26 27 28 29 30 31 32 33 34 35 36 37 38 39 40 41 42 43 44 45 46 47 48 49 50
000
ASUS45 KGGW 230415
RWRGGW
HOURLY REGIONAL WEATHER ROUNDUP FOR NORTHEAST MONTANA
NATIONAL WEATHER SERVICE GLASGOW MONTANA
1000 PM MDT SUN OCT 22 2017

NOTE: "FAIR" INDICATES FEW OR NO CLOUDS BELOW 12,000 FEET WITH NO
SIGNIFICANT WEATHER AND/OR OBSTRUCTIONS TO VISISBILITY.

NORTHEAST MONTANA


CITY           SKY/WX    TMP DP  RH WIND       PRES   REMARKS
GLASGOW        CLOUDY    47  38  71 W23G38    29.89R
WOLF POINT     LGT RAIN  50  38  63 W17G25    29.85R
JORDAN           N/A     50  32  50 NW24G35   29.95R
SIDNEY         PTCLDY    53  34  48 W32G40    29.76R
GLENDIVE       CLEAR     46  36  68 W23       29.87R
SCOBEY           N/A     43  30  60 W15       29.79R

FORT PECK REPORTS


CITY           SKY/WX    TMP DP  RH WIND       PRES   REMARKS
FORT PECK        N/A     47  42  83 W33G49      N/A
THE PINES        N/A     47  34  60 NW14G30     N/A

SOUTHEAST MONTANA


CITY           SKY/WX    TMP DP  RH WIND       PRES   REMARKS
BILLINGS       CLEAR     51  20  29 W28G43    30.09R
MILES CITY     CLEAR     52  29  41 NW22G31   29.95R
BAKER          CLEAR     45  40  82 W13       29.91R
LIVINGSTON     CLOUDY    48  23  37 W26G35    30.21R

CENTRAL MONTANA


CITY           SKY/WX    TMP DP  RH WIND       PRES   REMARKS
HAVRE          CLOUDY    47  28  47 W22       30.00R
LEWISTOWN      CLEAR     46  21  37 W23G39    30.08R
GREAT FALLS    CLEAR     43  24  47 SW18      30.12R
CUT BANK       CLEAR     40  30  67 W18G29    30.07R
HELENA         CLOUDY    48  27  44 W20G30    30.25R
BUTTE          CLOUDY    41  27  57 W10G18    30.30R
BOZEMAN        CLOUDY    45  28  51 W16       30.28R

WESTERN MONTANA


CITY           SKY/WX    TMP DP  RH WIND       PRES   REMARKS
MISSOULA       LGT RAIN  45  37  73 VRB3      30.34R
KALISPELL      NOT AVBL

NORTH DAKOTA


CITY           SKY/WX    TMP DP  RH WIND       PRES   REMARKS
WILLISTON      LGT RAIN  52  36  54 W17       29.73R
DICKINSON      MOCLDY    51  35  54 W17G29    29.78R
MINOT          MOCLDY    55  40  56 W20G25    29.62R
BISMARCK       CLOUDY    57  40  52 W12       29.71R

SOUTHERN SASKATCHEWAN


CITY           SKY/WX    TMP DP  RH WIND       PRES   REMARKS
REGINA         MOCLDY    37  34  87 NW12      29.71R
ESTEVAN        PTCLDY    45  34  65 W21       29.66R
SWIFT CURRENT  MOCLDY    41  30  65 W16G23    29.80R




USA.gov is the U.S. government's official web portal to all federal, state and local government web resources and services.